Regional Weather Roundup
Issued by NWS

Home | Current Version | Previous Version | Text Only | Print | Product List | Glossary On
Versions: 1 2 3 4 5 6 7 8 9 10 11 12 13 14 15 16 17 18 19 20 21 22 23 24 25 26 27 28 29 30 31 32 33 34 35 36 37 38 39 40 41 42 43 44 45 46 47 48 49 50
416
ASUS44 KLUB 041610
RWRTX
WEST TEXAS WEATHER ROUNDUP
NATIONAL WEATHER SERVICE LUBBOCK TX
1100 AM CDT WED MAY 04 2016

NOTE: "FAIR" INDICATES FEW OR NO CLOUDS BELOW 12,000 FEET WITH NO
SIGNIFICANT WEATHER AND/OR OBSTRUCTIONS TO VISIBILITY.

TXZ004-006>008-010-012-014-016-OKZ002-041700-
TEXAS PANHANDLE/OKLAHOMA PANHANDLE

CITY           SKY/WX    TMP DP  RH WIND       PRES   REMARKS
AMARILLO       SUNNY     68  38  33 NW10      30.22S
BORGER         SUNNY     68  40  35 NW7       30.20S
CANADIAN       SUNNY     71  45  39 NW7       30.16R
DALHART        SUNNY     70  34  26 N10       30.24S
DUMAS          SUNNY     67  36  30 N6        30.22S
GUYMON         SUNNY     70  40  33 N12       30.18S
HEREFORD       SUNNY     71  39  31 N13       30.24S
PAMPA          SUNNY     68  41  36 NW8       30.21S
PERRYTON       SUNNY     68  46  45 N13       30.17S
$$

TXZ026-029-035-045-048-041700-
SOUTHERN PANHANDLE/SOUTH PLAINS/ROLLING PLAINS

CITY           SKY/WX    TMP DP  RH WIND       PRES   REMARKS
CHILDRESS      SUNNY     73  40  30 NW12      30.15S
SEMINOLE       SUNNY     73  34  24 W6        30.25S
LUBBOCK        SUNNY     71  39  31 N10       30.22S
PLAINVIEW      SUNNY     69  38  32 NW10G16   30.21S
SNYDER           N/A     70  39  32 NW7       30.21S
$$

TXZ052-054-060>062-072-078-127-140-154-169-041700-
PERMIAN BASIN/CONCHO VALLEY/BIG COUNTRY/EDWARDS PLATEAU

CITY           SKY/WX    TMP DP  RH WIND       PRES   REMARKS
ABILENE        SUNNY     67  52  58 N8        30.18R
BIG SPRING     SUNNY     70  46  42 CALM      30.24S
BROWNWOOD      SUNNY     70  57  64 W7        30.14S
JUNCTION       SUNNY     74  49  41 W9        30.16S
MIDLAND        SUNNY     74  40  29 CALM      30.22S
ODESSA         SUNNY     76  35  22 N7        30.23R
SAN ANGELO     SUNNY     72  53  51 W7        30.18S
SONORA         SUNNY     72  50  46 SW8       30.23S
SWEETWATER     SUNNY     70  37  29 NW15G21   30.21F
WINK           SUNNY     72  46  39 CALM      30.22S
$$

TXZ055-058-074-075-080-082-041700-
FAR WEST/SOUTHWEST MOUNTAINS/TRANS PECOS

CITY           SKY/WX    TMP DP  RH WIND       PRES   REMARKS
ALPINE         SUNNY     69  33  25 E8        30.35R
DRYDEN           N/A     74  51  44 CALM      30.19S
EL PASO        SUNNY     72  31  22 E10G18    30.25S
FORT STOCKTON  SUNNY     72  45  37 VRB3      30.24R
GUADALUPE PASS SUNNY     66  32  28 E20       30.33R
MARFA          SUNNY     69  32  25 NE12G17   30.31S
PECOS          SUNNY     69  46  43 NW3       30.24S
PRESIDIO       FAIR      77  46  33 NE9       30.21S
$$

TXZ014-016-019-021>030-083-041700
TEXAS TECH WEST TEXAS MESONET/TEXAS PANHANDLE/NORTHERN SOUTH PLAINS

CITY           SKY/WX    TMP DP  RH WIND       PRES   REMARKS
ABERNATHY 5ENE   N/A     68  44  40 NW10      30.25S
AMARILLO 9NNE    N/A     67  40  37 NW6       30.23S
AMARILLO 7SSE    N/A     69  38  33 N9        30.25R
AMHERST 1NE      N/A     72  32  23 NW14      30.24F
BOOTLEG 11WNW    N/A     68  33  27 NW15      30.30S
CANADIAN 6E      N/A     73  42  32 NW10      30.14S
CAPROCK CYN SP   N/A     72  32  23 NW6       30.20S
CHILDRESS 2NNE   N/A     74  44  34 NW10      30.16S
CLARENDON 2WSW   N/A     72  35  25 NW14      30.19F
CLAUDE 12SW      N/A     70  35  27 NW9       30.22S
DIMMITT 2NE      N/A     71  36  27 NW12G21   30.25S
FLOYDADA 2NNE    N/A     70  35  27 NW12      30.21F
FRIONA 2NE       N/A     71  34  25 NW15G21   30.27S
GOODLETT 3W      N/A     73  45  37 NW13      30.14S
HART 3N          N/A     71  35  27 NW13      30.24F
HEREFORD 2NW     N/A     70  34  26 NW13G18   30.27S
MCLEAN 1E        N/A     71  35  26 NW16G22   30.18S
MEMPHIS 1NE      N/A     75  37  25 NW13      30.16F
MULESHOE 2SSW    N/A     73  32  22 NW10G17   30.26S
OLTON 6S         N/A     70  37  29 NW13      30.24F
PALO DURO SP     N/A     71  36  28 NW6       30.24S
PAMPA 2E         N/A     67  41  38 NW12      30.21S
PLAINVIEW 1S     N/A     69  37  30 NW10      30.23F
SILVERTON 7ESE   N/A     72  34  25 NW13      30.20S
TULIA 2ENE       N/A     69  37  30 NW15G21   30.23F
TURKEY 2WSW      N/A     73  38  28 NW12      30.19S
UMBARGER 3NNE    N/A     70  39  32 N9        30.25R
$$

TXZ033>036-039>041-045>048-041700
TEXAS TECH WEST TEXAS MESONET/SOUTH PLAINS

CITY           SKY/WX    TMP DP  RH WIND       PRES   REMARKS
AIKEN 3WSW       N/A     70  38  32 NW10      30.23F
ANDREWS 2NE      N/A     74  34  23 W7        30.26S
ANTON 6SSW       N/A     73  35  25 NW13      30.23F
BROWNFIELD 2S    N/A     71  36  27 NW9       30.25S
DENVR CTY 7WNW   N/A     73  27  18 NE7G14    30.26S
GAIL 2ESE        N/A     74  38  27 N6        30.21S
LAMESA 2SE       N/A     73  35  25 NW8       30.24S
LEVELLAND 4S     N/A     71  33  24 W12       30.25S
LUBBOCK 3WNW     N/A     72  35  25 NW10      30.24S
MORTON 1ENE      N/A     73  30  20 NW13G20   30.25F
ODONNELL 1N      N/A     72  34  25 NW9       30.24S
PLAINS 3N        N/A     74  30  19 NW13      30.26S
RALLS 1SE        N/A     70  42  37 NW12      30.23F
REESE CENTER     N/A     70  35  27 NW12G20   30.24F
SEAGRAVES 1SW    N/A     73  33  23 N5        30.25S
SEMINOLE 2NNE    N/A     74  29  18 NE7       30.24S
SLATON 2NE       N/A     72  35  25 NW9G16    30.23S
SNYDER 3E        N/A     71  41  33 NW8       30.21S
SUNDOWN 8SW      N/A     73  32  22 NW13G18   30.25S
TAHOKA 3NNE      N/A     71  36  27 NW7       30.24S
WOLFFORTH 6SSW   N/A     70  37  29 NW7       30.24S
$$

TXZ031-032-036>038-042>044-041700-
TEXAS TECH WEST TEXAS MESONET/ROLLING PLAINS

CITY           SKY/WX    TMP DP  RH WIND       PRES   REMARKS
ASPERMONT 3NE    N/A     74  42  32 NW12      30.17F
FLUVANNA 3WNW    N/A     71  37  29 N12       30.22S
GRAHAM 5SSW      N/A     71  36  27 NW12      30.22F
GUTHRIE 10WSW    N/A     75  35  23 NW14G21   30.17S
HASKELL 1NW      N/A     73  40  30 NW13G18   30.16S
JAYTON 1SSE      N/A     73  39  28 NW9       30.18S
KNOX CITY 3NW    N/A     74  44  33 NW9       30.16S
LK A HENRY 1NW   N/A     73  41  31 NW5       30.21S
NORTHFIELD 1S    N/A     75  40  28 NW10      30.17F
ODELL 4ENE       N/A     73  47  39 NW10      30.14S
PADUCAH 10SW     N/A     74  42  31 NW13G20   30.17S
POST 1NE         N/A     74  37  25 W7        30.21S
RRING SPRGS 3N   N/A     72  40  31 N10G16    30.19F
SEYMOUR 3NW      N/A     71  47  42 NW12      30.14S
SPUR 1W          N/A     71  38  29 NW12      30.19S
WEINERT 2NNE     N/A     70  50  50 NW9       30.16S
$$

TXZ052-054-060>062-072-078-127-140-154-169-041700-
TEXAS TECH WEST TEXAS MESONET/PERMIAN BASIN/
CONCHO VALLEY/BIG COUNTRY/EDWARDS PLATEAU

CITY           SKY/WX    TMP DP  RH WIND       PRES   REMARKS
COYANOSA 2N      N/A     72  48  43 W3        30.24F
JUNCTION 1SSW    N/A     76  51  41 SW7       30.18S
MERTZON 3NNE     N/A     73  51  45 N7        30.21S
SAN ANGELO 7NW   N/A     73  43  33 NW12G17   30.19S
STRLNG CT 4WSW   N/A     71  51  48 N5        30.22S
ST LAWRNCE 5SW   N/A     70  48  45 NW6       30.23S
SWEETWATR 11SW   N/A     70  41  34 N16       30.21F
WALL 1E          N/A     69  49  47 W12       30.20S
$$

TXZ055-058-074-075-080-082-041700-
TEXAS TECH WEST TEXAS MESONET/FAR WEST/SOUTHWEST MOUNTAINS/TRANS PECOS

CITY           SKY/WX    TMP DP  RH WIND       PRES   REMARKS
PRSMN GAP BBNP   N/A     73  50  44 NE7       30.23S
GUADLPE MTN NP   N/A     65  29  25 NE12      30.35S
$$




USA.gov is the U.S. government's official web portal to all federal, state and local government web resources and services.